CZ-6A DEB, 54309

Orbit data source: Space-Track

CZ-6A DEB, 54309 is space debris in SSO originally from a launch on Fri, 11 Nov 2022 UTC launched from the Taiyaun Space Center, China (TSC). Debris objects in space refer to the collection of defunct objects orbiting the Earth. Examples of debris include non-operational satellites, rocket bodies, and fragments generated from explosions, collisions, or faulty payload assembly.

Loading next visibility...
Identifier
54309, 2022-151BC
Orbit
SSO
Country
Flag of CNCN / PRC
Related business
Manufacturer
SAST
Mission
Spacecraft
Bus & Motor
Unknown
Mass
Unknown
Launch date (UTC)
2022-11-11 (3 years ago)
Launch vehicle
Unknown
Launch site
Taiyaun Space Center, China (TSC)
Object type
Payload
Rocket body
Debris
Shape & HBR
Unknown shape, 0.3 m
Radar Cross Section
Medium (>0.1 m² and <1 m²)

Expand to show TLE details & history
Last TLE update: 14 hours ago

TLE from 14 hours ago
0 CZ-6A DEB
1 54309U 22151BC  25350.27205308  .00000457  00000-0  26938-3 0  9991
2 54309  98.8280 351.9880 0037531 118.0000 242.4977 14.12478289158871
Epoch: 2025-12-16T06:31Z
TLE epoch observation values (Epoch: 2025-12-16T06:31:45.386Z)
Latitude
-0.00002°
Longitude
168.89025°
Altitude
866.415 km
Speed
7.413 km/s
True Right ascension
23h 27m 57s
True Declination
0° 00' 00"
Sunlit
Object was in daylight at epoch
Visualization orbit readout
Latitude
Unknown
Longitude
Unknown
Altitude
Unknown
Speed
Unknown
Apparent Right ascension
Unknown
Apparent Declination
Unknown
Sunlit
N/A
Visualization observer readout
Local Sidereal Time
19:42:36
Azimuth
Unknown
Elevation
Unknown
Doppler factor
Unknown
Orbital elements
Apogee altitude
875.198 km
Perigee altitude
820.957 km
Semi-major axis
7,226.215 km
Eccentricity
0.00375
Inclination
98.828°
RAAN
351.988°
Arg. of periapsis
118°
True anomaly
242.11706°
Mean anomaly
242.4977°
Eccentric anomaly
242.3073°
Mean motion
3.53327 °/min
Orbital period
101.89 mins
BSTAR
0.00026938
Loading maneuver chart data...
Computing Atmospheric mass density...
Loading historical data...
Loading historical data...
Loading historical data...
Loading historical data...
Loading historical data...
Loading historical data...
Loading historical data...

Documentation

Showing up to 5 results
|